• In Belarus
  • List of Countries
  • For 7 days
  • Water Temperature
  • Weather Map
  • Weather Widgets
  • user-avatar
    Login

    Hourly Weather Vanadzor

    Today, 22 September, Sunday

    Time Temperature Precipitation Wind Pressure Humidity
    00:00 +6°C° 0 mm 2 mps 633 mmHg 77%
    01:00 +6°C° 0 mm 2 mps 634 mmHg 77%
    02:00 +5°C° 0 mm 2 mps 634 mmHg 75%
    03:00 +5°C° 0 mm 2 mps 634 mmHg 74%
    04:00 +5°C° 0 mm 2 mps 634 mmHg 74%
    05:00 +4°C° 0 mm 2 mps 635 mmHg 74%
    06:00 +4°C° 0 mm 2 mps 635 mmHg 75%
    07:00 +6°C° 0 mm 2 mps 636 mmHg 67%
    08:00 +8°C° 0 mm 2 mps 637 mmHg 59%
    09:00 +10°C° 0 mm 2 mps 638 mmHg 51%
    10:00 +12°C° 0 mm 2 mps 638 mmHg 47%
    11:00 +14°C° 0 mm 1 mps 639 mmHg 43%
    12:00 +15°C° 0 mm 1 mps 639 mmHg 39%
    13:00 +15°C° 0 mm 2 mps 639 mmHg 40%
    14:00 +16°C° 0 mm 2 mps 639 mmHg 41%
    15:00 +16°C° 0 mm 2 mps 639 mmHg 42%
    16:00 +14°C° 0 mm 2 mps 638 mmHg 52%
    17:00 +12°C° 0 mm 2 mps 637 mmHg 63%
    18:00 +9°C° 0 mm 1 mps 636 mmHg 73%
    19:00 +9°C° 0 mm 1 mps 636 mmHg 76%
    20:00 +8°C° 0 mm 1 mps 636 mmHg 80%
    21:00 +7°C° 0 mm 1 mps 636 mmHg 84%
    22:00 +6°C° 0 mm 1 mps 636 mmHg 84%
    23:00 +6°C° 0 mm 1 mps 636 mmHg 84%

    Tomorrow, 23 September, Monday

    Time Temperature Precipitation Wind Pressure Humidity
    00:00 +6°C° 0 mm 1 mps 636 mmHg 84%
    01:00 +5°C° 0 mm 0 mps 636 mmHg 81%
    02:00 +5°C° 0 mm 0 mps 635 mmHg 79%
    03:00 +5°C° 0 mm 0 mps 635 mmHg 77%
    04:00 +5°C° 0 mm 0 mps 635 mmHg 73%
    05:00 +6°C° 0 mm 1 mps 635 mmHg 70%
    06:00 +6°C° 0 mm 1 mps 635 mmHg 66%
    07:00 +9°C° 0 mm 1 mps 636 mmHg 58%
    08:00 +11°C° 0 mm 1 mps 636 mmHg 50%
    09:00 +14°C° 0 mm 1 mps 637 mmHg 42%
    10:00 +16°C° 0 mm 1 mps 637 mmHg 40%
    11:00 +18°C° 0 mm 1 mps 637 mmHg 38%
    12:00 +20°C° 0 mm 1 mps 637 mmHg 36%
    13:00 +19°C° 0 mm 2 mps 637 mmHg 37%
    14:00 +19°C° 0 mm 2 mps 637 mmHg 37%
    15:00 +19°C° 0 mm 2 mps 636 mmHg 37%
    16:00 +17°C° 0 mm 2 mps 636 mmHg 47%
    17:00 +15°C° 0 mm 1 mps 635 mmHg 57%
    18:00 +12°C° 0 mm 1 mps 634 mmHg 67%
    19:00 +11°C° 0 mm 1 mps 634 mmHg 71%
    20:00 +10°C° 0 mm 1 mps 634 mmHg 75%
    21:00 +10°C° 0 mm 1 mps 634 mmHg 79%
    22:00 +9°C° 0 mm 1 mps 634 mmHg 79%
    23:00 +9°C° 0 mm 1 mps 634 mmHg 80%

    Day after tomorrow, 24 September, Tuesday

    Time Temperature Precipitation Wind Pressure Humidity
    00:00 +9°C° 0 mm 1 mps 634 mmHg 80%
    01:00 +9°C° 0 mm 1 mps 634 mmHg 79%
    02:00 +8°C° 0 mm 1 mps 634 mmHg 77%
    03:00 +8°C° 0 mm 1 mps 634 mmHg 76%
    04:00 +8°C° 0 mm 1 mps 634 mmHg 75%
    05:00 +7°C° 0 mm 0 mps 634 mmHg 73%
    06:00 +6°C° 0 mm 0 mps 634 mmHg 72%
    07:00 +10°C° 0 mm 1 mps 635 mmHg 65%
    08:00 +13°C° 0 mm 1 mps 636 mmHg 57%
    09:00 +15°C° 0 mm 1 mps 637 mmHg 50%
    10:00 +18°C° 0 mm 1 mps 637 mmHg 46%
    11:00 +19°C° 0 mm 1 mps 637 mmHg 42%
    12:00 +19°C° 0 mm 2 mps 637 mmHg 39%
    13:00 +19°C° 0 mm 2 mps 637 mmHg 38%
    14:00 +20°C° 0 mm 2 mps 637 mmHg 38%
    15:00 +20°C° 0 mm 2 mps 636 mmHg 38%
    16:00 +17°C° 0 mm 2 mps 635 mmHg 50%
    17:00 +15°C° 0 mm 2 mps 634 mmHg 62%
    18:00 +13°C° 0 mm 1 mps 633 mmHg 75%
    19:00 +12°C° 0 mm 1 mps 634 mmHg 78%
    20:00 +11°C° 0 mm 1 mps 634 mmHg 81%
    21:00 +10°C° 0 mm 1 mps 634 mmHg 84%
    22:00 +10°C° 0 mm 1 mps 634 mmHg 81%
    23:00 +10°C° 0 mm 1 mps 634 mmHg 79%

    25 September, Wednesday

    Time Temperature Precipitation Wind Pressure Humidity
    00:00 +10°C° 0 mm 1 mps 634 mmHg 77%
    01:00 +9°C° 0 mm 0 mps 633 mmHg 75%
    02:00 +8°C° 0 mm 0 mps 633 mmHg 73%
    03:00 +8°C° 0 mm 0 mps 633 mmHg 72%
    04:00 +9°C° 0 mm 1 mps 633 mmHg 68%
    05:00 +9°C° 0 mm 1 mps 633 mmHg 65%
    06:00 +9°C° 0 mm 1 mps 633 mmHg 61%
    07:00 +12°C° 0 mm 1 mps 634 mmHg 53%
    08:00 +15°C° 0 mm 1 mps 635 mmHg 44%
    09:00 +19°C° 0 mm 1 mps 637 mmHg 36%
    10:00 +20°C° 0 mm 2 mps 637 mmHg 33%
    11:00 +21°C° 0 mm 2 mps 637 mmHg 30%
    12:00 +24°C° 0 mm 3 mps 637 mmHg 27%
    13:00 +24°C° 0 mm 3 mps 637 mmHg 27%
    14:00 +24°C° 0 mm 3 mps 637 mmHg 28%
    15:00 +24°C° 0 mm 3 mps 636 mmHg 28%
    16:00 +21°C° 0 mm 2 mps 636 mmHg 37%
    17:00 +18°C° 0 mm 2 mps 635 mmHg 46%
    18:00 +16°C° 0 mm 1 mps 634 mmHg 55%
    19:00 +15°C° 0 mm 1 mps 634 mmHg 56%
    20:00 +14°C° 0 mm 1 mps 635 mmHg 57%
    21:00 +13°C° 0 mm 1 mps 635 mmHg 58%
    22:00 +13°C° 0 mm 1 mps 635 mmHg 58%
    23:00 +13°C° 0 mm 1 mps 635 mmHg 59%

    26 September, Thursday

    Time Temperature Precipitation Wind Pressure Humidity
    00:00 +12°C° 0 mm 0 mps 635 mmHg 60%
    01:00 +12°C° 0 mm 0 mps 635 mmHg 62%
    02:00 +11°C° 0 mm 0 mps 635 mmHg 64%
    03:00 +11°C° 0 mm 0 mps 635 mmHg 66%
    04:00 +11°C° 0 mm 0 mps 635 mmHg 66%
    05:00 +11°C° 0 mm 0 mps 635 mmHg 65%
    06:00 +11°C° 0 mm 1 mps 635 mmHg 65%
    07:00 +14°C° 0 mm 1 mps 636 mmHg 59%
    08:00 +16°C° 0 mm 2 mps 636 mmHg 53%
    09:00 +19°C° 0 mm 3 mps 637 mmHg 46%
    10:00 +20°C° 0 mm 3 mps 637 mmHg 42%
    11:00 +21°C° 0 mm 4 mps 638 mmHg 38%
    12:00 +23°C° 0 mm 5 mps 638 mmHg 33%
    13:00 +23°C° 0 mm 5 mps 637 mmHg 33%
    14:00 +25°C° 0 mm 5 mps 637 mmHg 33%
    15:00 +25°C° 0 mm 5 mps 637 mmHg 33%
    16:00 +21°C° 0 mm 4 mps 636 mmHg 44%
    17:00 +19°C° 0 mm 3 mps 635 mmHg 56%
    18:00 +16°C° 0 mm 1 mps 634 mmHg 67%
    19:00 +15°C° 0 mm 1 mps 634 mmHg 71%
    20:00 +14°C° 0 mm 1 mps 634 mmHg 74%
    21:00 +13°C° 0 mm 1 mps 635 mmHg 78%
    22:00 +13°C° 0 mm 1 mps 635 mmHg 81%
    23:00 +13°C° 0 mm 1 mps 635 mmHg 83%

    27 September, Friday

    Time Temperature Precipitation Wind Pressure Humidity
    00:00 +12°C° 0 mm 1 mps 635 mmHg 86%
    01:00 +12°C° 0 mm 1 mps 634 mmHg 86%
    02:00 +12°C° 0 mm 1 mps 634 mmHg 87%
    03:00 +10°C° 0 mm 0 mps 634 mmHg 88%
    04:00 +10°C° 0 mm 0 mps 634 mmHg 87%
    05:00 +10°C° 0 mm 0 mps 634 mmHg 85%
    06:00 +10°C° 0 mm 0 mps 634 mmHg 84%
    07:00 +13°C° 0 mm 1 mps 635 mmHg 75%
    08:00 +16°C° 0 mm 1 mps 636 mmHg 67%
    09:00 +19°C° 0 mm 1 mps 637 mmHg 58%
    10:00 +21°C° 0 mm 1 mps 637 mmHg 54%
    11:00 +21°C° 0 mm 2 mps 637 mmHg 49%
    12:00 +23°C° 0 mm 2 mps 637 mmHg 44%
    13:00 +24°C° 0 mm 3 mps 637 mmHg 44%
    14:00 +24°C° 0 mm 3 mps 636 mmHg 43%
    15:00 +24°C° 0 mm 3 mps 636 mmHg 43%
    16:00 +21°C° 0.1 mm 2 mps 635 mmHg 55%
    17:00 +18°C° 0.1 mm 2 mps 634 mmHg 66%
    18:00 +16°C° 0.1 mm 1 mps 634 mmHg 78%
    19:00 +16°C° 0 mm 1 mps 634 mmHg 79%
    20:00 +15°C° 0 mm 1 mps 634 mmHg 79%
    21:00 +15°C° 0 mm 1 mps 634 mmHg 80%
    22:00 +14°C° 0 mm 1 mps 634 mmHg 78%
    23:00 +14°C° 0 mm 1 mps 634 mmHg 77%
    Show more